Temperature
1 1 1 1 1 1 1 1 1 1 1 1 1 2 2 2 2 2 2 2 2 2 2 2 2 2 2 2 2 1 1 1 1 1 2 2 2 2 2 2 2 2 2
0 0 0 0 0 0 0 1 1 1 1 1 1 1 1 1 1 1 1 1 1 1 1 1 1 1 1 1 1 1 1 1 1 1 1 1 1 1 1 1 1 1 1
-1 -1 -1 -0 -0 -0 -0 0 -0 0 0 0 0 1 1 1 1 1 1 1 1 1 1 1 1 1 1 1 0 0 0 0 0 0 0 1 1 0 0 1 1 1 1
-1 -1 -1 -1 -1 -1 -1 -1 -1 -1 -0 -0 -0 -0 0 0 0 0 0 0 0 0 0 0 0 0 0 0 0 0 -0 -0 -0 -0 -0 -0 -0 -0 -0 -0 -0 0 0
-2 -2 -2 -2 -2 -2 -1 -1 -1 -1 -1 -1 -1 -1 -1 -1 -0 -0 -1 -1 -0 -0 -0 -0 -0 -0 -0 -0 -0 -0 -1 -1 -1 -1 -1 -1 -1 -1 -1 -1 -1 -1 -1
-3 -3 -3 -3 -2 -2 -2 -2 -2 -2 -2 -2 -2 -2 -1 -1 -1 -1 -1 -1 -1 -1 -1 -1 -1 -1 -1 -1 -1 -1 -1 -1 -1 -1 -1 -1 -1 -1 -1 -1 -2 -2 -2
-4 -4 -3 -3 -3 -3 -3 -3 -3 -3 -2 -2 -2 -2 -2 -2 -2 -2 -2 -2 -2 -2 -2 -2 -2 -1 -1 -1 -1 -1 -1 -1 -1 -1 -2 -1 -2 -2 -2 -2 -2 -2 -2
-4 -4 -4 -4 -4 -4 -4 -4 -4 -3 -3 -3 -3 -3 -3 -3 -3 -3 -3 -3 -3 -3 -3 -2 -2 -2 -2 -2 -2 -2 -2 -2 -2 -2 -2 -2 -2 -2 -2 -2 -2 -3 -3
-5 -5 -5 -5 -4 -4 -4 -4 -4 -4 -4 -4 -4 -4 -4 -3 -3 -3 -4 -4 -4 -4 -3 -3 -3 -3 -3 -3 -3 -3 -3 -2 -2 -3 -3 -3 -3 -3 -3 -3 -3 -4 -4
-5 -5 -5 -5 -5 -5 -5 -5 -5 -5 -5 -5 -5 -5 -4 -4 -4 -4 -4 -5 -5 -4 -4 -4 -4 -4 -4 -4 -4 -4 -3 -3 -3 -3 -3 -3 -3 -3 -4 -4 -4 -4 -4
-6 -6 -6 -6 -6 -6 -5 -5 -5 -5 -5 -5 -5 -5 -5 -4 -4 -4 -5 -5 -5 -5 -5 -5 -4 -4 -4 -4 -4 -4 -4 -4 -4 -4 -4 -4 -4 -4 -4 -4 -4 -5 -5
-6 -6 -6 -6 -6 -6 -6 -6 -6 -6 -6 -6 -6 -5 -5 -5 -5 -5 -5 -6 -5 -5 -5 -5 -5 -5 -5 -5 -5 -5 -5 -5 -5 -5 -5 -5 -5 -5 -5 -5 -5 -5 -5
-7 -7 -7 -7 -7 -7 -7 -7 -7 -7 -7 -7 -6 -6 -6 -6 -6 -6 -6 -6 -6 -6 -6 -6 -6 -5 -5 -5 -5 -5 -5 -5 -5 -6 -6 -6 -5 -5 -5 -5 -5 -6 -6
-8 -8 -8 -7 -7 -7 -7 -7 -7 -7 -7 -7 -7 -7 -7 -7 -6 -6 -6 -7 -6 -6 -6 -6 -6 -6 -6 -6 -6 -6 -6 -6 -6 -6 -6 -6 -6 -6 -6 -6 -6 -6 -7
-8 -8 -8 -8 -8 -8 -8 -8 -8 -7 -8 -8 -8 -8 -8 -7 -7 -7 -7 -7 -7 -7 -7 -7 -7 -6 -6 -6 -7 -7 -7 -7 -7 -7 -7 -7 -7 -6 -6 -6 -7 -7 -7
-9 -9 -9 -9 -8 -8 -8 -8 -8 -8 -8 -8 -8 -8 -8 -8 -8 -7 -7 -7 -7 -7 -7 -7 -7 -7 -7 -7 -7 -7 -7 -7 -7 -7 -7 -7 -7 -7 -7 -7 -7 -7 -8
-9 -9 -9 -9 -9 -9 -9 -9 -9 -8 -8 -8 -8 -8 -8 -8 -8 -8 -8 -8 -8 -8 -7 -7 -8 -8 -7 -8 -8 -8 -8 -8 -8 -8 -8 -8 -8 -8 -8 -8 -8 -8 -8
-10 -10 -10 -10 -9 -10 -10 -10 -10 -10 -9 -9 -9 -9 -9 -9 -8 -8 -8 -8 -8 -8 -8 -8 -8 -8 -8 -8 -8 -8 -8 -8 -8 -8 -8 -8 -8 -8 -8 -8 -8 -9 -9
-10 -10 -10 -10 -10 -10 -10 -10 -10 -10 -10 -10 -9 -9 -9 -9 -9 -9 -9 -9 -8 -8 -8 -8 -8 -8 -8 -8 -8 -9 -9 -9 -9 -9 -9 -9 -9 -9 -9 -9 -9 -9 -10
-10 -10 -11 -11 -11 -11 -11 -11 -11 -10 -10 -10 -10 -10 -10 -10 -10 -9 -9 -9 -9 -9 -9 -9 -9 -9 -9 -9 -9 -9 -9 -9 -9 -9 -9 -9 -9 -9 -10 -10 -10 -10 -10
-11 -11 -11 -11 -11 -11 -11 -11 -11 -11 -11 -11 -11 -11 -11 -10 -10 -10 -10 -10 -10 -9 -9 -9 -9 -9 -9 -9 -9 -10 -10 -10 -10 -10 -10 -10 -10 -10 -10 -10 -10 -10 -11
-11 -11 -11 -11 -11 -12 -12 -12 -11 -11 -11 -11 -11 -11 -11 -11 -11 -11 -11 -10 -10 -10 -10 -10 -10 -10 -10 -10 -10 -10 -10 -10 -10 -10 -10 -10 -10 -10 -11 -11 -11 -11 -11
-12 -12 -12 -12 -12 -12 -12 -12 -12 -12 -12 -12 -12 -12 -11 -11 -11 -11 -11 -11 -11 -11 -11 -10 -10 -10 -10 -10 -10 -10 -10 -11 -11 -11 -11 -11 -11 -11 -11 -11 -11 -12 -12
-12 -12 -12 -12 -12 -12 -12 -12 -12 -12 -12 -12 -12 -12 -12 -12 -12 -12 -12 -11 -11 -11 -11 -11 -11 -11 -11 -11 -11 -11 -11 -11 -11 -11 -11 -11 -11 -12 -12 -12 -12 -12 -12
-12 -12 -13 -13 -13 -13 -13 -13 -13 -13 -13 -13 -13 -12 -12 -12 -12 -12 -12 -12 -12 -12 -12 -12 -12 -12 -12 -12 -12 -12 -12 -12 -12 -12 -12 -12 -12 -12 -12 -12 -12 -13 -13
-13 -13 -13 -13 -13 -13 -13 -13 -13 -13 -13 -13 -13 -13 -13 -13 -13 -13 -13 -13 -13 -13 -12 -12 -12 -12 -12 -12 -12 -12 -12 -12 -12 -12 -12 -12 -13 -13 -13 -13 -13 -13 -13
Wind_Speed
3 3 3 4 4 4 4 5 5 4 4 5 5 4 4 4 4 4 4 4 5 5 4 5 4 3 3 3 3 3 2 2 3 3 2 2 3 3 4 5 5 5 6
3 3 3 3 3 4 4 5 5 5 5 5 5 5 5 5 5 5 6 5 6 6 6 5 5 4 4 4 4 4 3 3 3 4 2 2 3 4 4 4 4 5 6
3 3 3 2 3 4 4 4 5 5 5 5 5 5 5 5 5 6 6 6 6 7 6 7 6 5 5 4 5 5 4 3 3 4 3 2 2 2 2 2 3 3 5
2 3 3 3 3 4 4 4 5 5 6 6 6 6 6 6 6 6 6 6 6 6 6 6 6 7 7 6 6 5 4 4 3 3 3 2 2 2 2 2 3 2 3
3 3 4 3 3 3 3 4 4 5 5 6 6 5 5 6 6 6 7 7 6 6 6 6 7 8 8 7 6 6 6 5 4 4 4 3 3 3 4 3 4 2 3
3 4 3 3 3 3 3 3 4 5 5 5 6 6 6 6 8 10 8 6 6 7 7 6 7 8 9 10 10 10 9 8 7 6 5 6 6 5 3 3 3 2 4
3 3 3 3 3 4 4 3 3 4 5 5 6 6 7 8 9 10 10 6 6 7 7 7 6 7 8 6 8 9 10 11 10 8 7 8 7 6 6 5 5 4 5
3 4 4 4 4 3 3 4 4 4 4 5 6 6 6 7 9 10 10 7 6 7 7 8 8 7 8 7 6 6 7 7 9 8 7 7 6 6 7 6 5 3 3
3 4 4 4 4 3 4 4 3 3 4 4 5 5 6 6 9 9 9 5 5 6 7 8 8 8 10 10 7 7 7 6 8 9 10 9 10 10 8 4 3 3 4
4 4 4 3 4 4 4 4 3 3 4 4 4 4 5 6 8 9 9 5 6 6 5 6 9 10 10 11 8 8 8 7 5 5 5 6 6 8 10 7 6 5 3
4 3 3 3 4 4 3 3 3 3 3 3 4 4 5 6 7 9 9 6 6 5 5 5 6 10 11 11 10 8 9 6 5 4 3 3 3 4 5 5 6 5 5
2 2 3 3 3 3 2 3 3 3 3 4 4 4 4 5 6 8 10 9 7 5 5 4 5 9 10 11 9 9 9 6 3 3 3 4 4 4 3 4 4 5 5
2 2 3 3 3 3 2 3 2 3 3 3 3 4 4 3 5 8 9 9 9 5 4 6 7 7 7 7 7 7 6 4 3 4 4 5 4 3 3 3 2 3 2
3 3 3 2 3 2 2 3 3 3 3 4 4 4 4 3 4 4 4 5 6 5 3 4 5 5 4 3 3 3 2 3 4 4 4 3 3 3 3 3 3 2 2
3 3 3 3 3 2 3 3 3 4 5 5 4 4 4 5 6 7 4 4 3 4 3 2 2 2 2 1 1 1 2 2 3 3 3 3 3 3 3 3 3 2 2
3 3 3 2 2 2 2 3 4 4 6 7 7 6 5 6 7 7 7 6 6 5 3 2 3 3 4 3 3 2 2 2 3 3 3 3 3 3 3 2 2 3 3
3 3 3 3 2 2 2 2 3 4 5 5 6 6 6 6 6 6 5 5 5 4 3 3 3 4 4 4 3 3 3 2 2 3 3 3 3 3 3 3 3 3 3
3 3 3 2 2 2 2 2 2 2 3 3 4 5 4 4 4 4 4 2 2 2 2 3 3 3 3 4 4 3 3 2 2 3 2 2 3 3 3 3 3 3 3
3 2 2 2 2 2 2 2 2 2 2 3 2 3 4 3 3 2 1 1 2 2 2 3 3 3 3 3 3 3 3 3 3 3 3 3 3 3 3 3 3 4 3
2 4 3 2 2 2 2 2 2 2 2 2 2 3 2 2 1 2 1 0 1 2 2 2 2 3 3 3 3 3 3 3 3 3 3 3 3 3 3 3 3 3 3
2 3 4 3 2 2 1 1 1 1 2 2 2 3 4 1 1 1 1 1 1 1 1 1 2 2 2 2 3 3 3 3 3 3 3 3 3 3 3 2 3 3 3
2 2 2 2 2 2 2 1 1 1 2 2 2 3 4 2 1 1 1 2 1 1 1 1 1 2 2 3 3 3 3 3 3 3 3 2 2 3 2 2 2 2 2
1 1 2 2 2 2 3 2 2 2 2 2 2 2 2 2 1 1 2 2 2 1 2 1 1 1 2 2 3 3 4 4 4 4 3 3 3 3 3 3 3 3 3
1 1 1 1 2 1 1 2 2 2 2 2 2 2 2 2 1 2 2 2 2 2 2 2 1 2 2 2 2 3 4 4 4 5 5 4 3 3 3 3 3 3 3
1 1 1 1 1 1 1 1 1 1 2 2 2 2 2 2 2 2 2 2 2 2 2 2 1 1 2 3 3 3 4 4 4 4 5 5 4 4 3 3 3 3 3
0 1 1 1 1 1 1 1 1 1 1 2 2 2 2 2 2 2 2 2 2 2 2 2 2 2 3 3 3 4 4 4 5 5 5 5 4 4 4 3 4 3 3
Wind_Direction
234 225 220 216 209 197 199 202 203 206 205 203 208 208 202 200 192 194 203 205 199 201 199 198 208 206 200 197 191 194 208 200 227 249 239 217 200 212 228 232 233 232 241
245 233 231 225 211 209 211 209 204 209 211 210 207 208 210 208 200 201 203 209 204 205 208 206 213 208 204 201 199 204 209 210 212 236 248 227 225 213 213 227 239 237 240
251 233 236 237 224 221 220 216 208 207 210 211 207 209 214 213 209 210 207 213 212 210 208 208 210 204 214 211 206 207 210 217 212 218 234 234 246 218 215 243 242 244 250
262 243 240 241 236 234 227 219 215 210 211 215 217 217 218 220 217 215 214 217 217 216 215 214 210 208 212 210 212 210 207 208 206 212 224 225 236 232 208 227 255 251 259
263 257 255 252 243 234 233 229 221 218 220 217 219 224 223 221 219 217 216 218 215 216 217 218 221 223 226 221 219 208 203 208 207 215 225 226 225 219 223 222 237 253 266
262 262 264 254 243 238 237 235 231 224 223 221 221 221 223 230 233 232 228 220 217 216 220 223 229 230 234 234 235 226 215 211 212 216 224 229 228 224 217 222 232 249 264
266 268 264 253 246 245 246 234 236 237 228 225 227 223 223 229 234 233 232 230 223 220 221 223 231 233 234 226 232 233 230 230 224 219 223 227 227 217 209 217 224 236 249
265 267 267 258 251 252 247 241 239 240 236 233 229 226 227 235 235 236 233 229 226 225 224 223 225 228 227 222 223 228 232 234 233 228 224 226 224 213 207 213 217 240 274
268 266 266 259 254 249 247 248 246 238 240 241 239 224 226 239 239 238 236 223 229 229 227 226 224 224 232 229 224 225 233 241 242 236 235 235 232 225 208 186 197 216 255
273 272 270 259 249 244 246 250 248 240 239 241 251 239 229 236 241 237 234 224 228 233 231 230 234 233 233 228 219 217 226 231 222 231 234 237 232 224 220 209 204 215 239
282 281 277 269 259 251 248 248 241 245 241 239 248 254 244 243 245 241 236 226 224 228 234 234 237 240 237 234 228 221 230 226 209 207 214 220 219 214 212 210 207 213 224
292 288 286 282 276 268 248 254 246 233 238 241 245 258 255 253 253 248 243 242 236 227 234 234 235 239 237 236 234 228 230 221 194 196 212 224 224 220 214 206 210 218 222
320 301 294 292 287 277 260 255 252 237 236 244 242 250 258 250 250 254 249 249 248 234 231 235 238 241 242 239 237 227 216 199 189 203 216 227 225 209 185 182 187 192 208
315 310 305 296 291 281 269 257 245 235 236 240 243 247 252 252 249 247 241 246 247 239 228 234 239 248 250 242 233 224 205 197 199 208 210 214 201 188 194 199 207 196 216
312 306 305 297 286 280 277 263 258 246 242 240 240 241 241 248 250 253 245 238 228 226 210 204 202 208 209 205 215 211 186 190 206 201 202 203 199 194 199 194 191 194 218
307 305 299 296 295 291 290 305 296 281 275 268 262 258 257 256 261 257 256 255 250 237 213 199 209 209 205 206 210 212 204 200 201 198 200 205 209 204 201 191 186 194 204
290 297 301 303 301 298 296 299 313 325 316 297 284 276 272 266 261 259 258 255 251 235 210 208 215 211 206 204 205 205 206 205 198 197 199 202 205 201 196 194 194 197 206
299 299 303 297 295 290 284 285 289 300 315 320 315 295 291 282 270 264 260 252 240 234 215 213 215 208 202 204 203 203 199 196 198 201 199 201 203 198 197 200 199 199 206
305 297 294 294 294 292 290 291 294 297 302 312 325 326 323 327 322 301 285 211 221 226 227 221 213 204 201 200 198 196 195 200 202 201 203 204 201 191 201 205 204 207 207
302 308 310 306 308 310 310 305 301 303 306 307 308 311 325 349 354 338 334 264 233 240 235 220 214 204 198 195 192 190 193 202 203 204 205 204 201 195 199 204 205 204 210
310 319 329 330 323 310 305 303 302 300 300 304 305 309 317 346 335 329 324 304 268 251 240 225 212 204 197 190 189 191 194 205 207 205 205 201 194 196 199 200 203 202 198
313 316 321 323 323 323 324 323 324 319 316 315 323 333 339 5 7 341 323 309 305 285 259 234 226 214 207 201 194 194 199 205 207 204 204 199 194 194 191 192 195 195 189
317 325 330 328 332 339 352 349 336 327 325 327 333 343 350 355 349 336 321 314 310 302 288 260 231 230 234 220 209 204 202 208 208 200 191 195 197 198 195 196 194 193 198
307 314 319 327 336 341 338 339 341 342 341 339 341 346 348 346 337 326 318 315 310 303 291 273 245 225 233 239 232 222 218 217 210 199 187 186 192 198 193 190 192 195 199
332 325 320 313 315 313 316 323 330 333 336 333 329 331 334 332 328 325 323 316 313 311 307 291 262 245 233 235 236 233 229 228 223 203 187 180 185 190 189 185 185 185 189
336 314 305 302 299 295 295 303 312 318 319 319 321 323 321 316 314 315 320 324 327 323 312 300 275 260 256 244 237 237 240 234 226 217 190 175 181 188 186 187 185 184 183
Height
1471 1472 1473 1474 1475 1476 1477 1479 1481 1482 1484 1485 1487 1489 1491 1492 1494 1495 1497 1498 1500 1501 1503 1504 1506 1508 1509 1510 1511 1513 1514 1514 1513 1514 1516 1517 1518 1519 1520 1520 1521 1521 1521
1468 1468 1469 1470 1470 1472 1473 1474 1476 1477 1479 1481 1483 1484 1486 1487 1488 1490 1491 1493 1495 1496 1498 1500 1501 1502 1504 1505 1506 1507 1509 1510 1509 1509 1510 1512 1513 1514 1514 1515 1515 1516 1516
1464 1464 1465 1465 1466 1467 1468 1469 1471 1472 1474 1476 1478 1479 1480 1482 1483 1485 1486 1487 1489 1491 1493 1494 1496 1497 1498 1500 1501 1502 1503 1504 1505 1505 1505 1506 1507 1508 1509 1509 1510 1510 1510
1460 1460 1460 1461 1461 1462 1463 1464 1465 1467 1469 1470 1472 1474 1475 1476 1477 1479 1481 1482 1484 1486 1487 1489 1490 1491 1493 1494 1495 1497 1498 1499 1500 1500 1500 1501 1501 1502 1503 1503 1503 1504 1504
1455 1456 1456 1457 1457 1457 1458 1459 1460 1461 1463 1464 1466 1468 1469 1470 1471 1473 1475 1476 1478 1480 1481 1483 1484 1486 1487 1489 1490 1491 1492 1493 1494 1494 1495 1495 1496 1496 1497 1497 1498 1497 1497
1451 1451 1452 1452 1452 1453 1453 1454 1455 1456 1457 1459 1460 1461 1463 1464 1466 1468 1469 1470 1472 1473 1475 1476 1478 1480 1481 1483 1484 1485 1487 1487 1488 1489 1489 1489 1490 1491 1492 1492 1492 1491 1491
1447 1447 1447 1447 1448 1448 1448 1449 1449 1450 1451 1452 1454 1455 1457 1458 1460 1461 1463 1465 1465 1467 1468 1469 1471 1473 1475 1476 1478 1479 1480 1481 1483 1483 1483 1483 1484 1485 1486 1486 1486 1486 1485
1442 1442 1443 1443 1443 1443 1444 1444 1444 1445 1445 1446 1448 1449 1450 1452 1454 1455 1457 1459 1459 1460 1461 1463 1464 1466 1468 1470 1471 1472 1473 1474 1476 1477 1477 1478 1479 1480 1481 1481 1480 1480 1480
1437 1438 1438 1438 1438 1438 1439 1439 1439 1440 1440 1441 1442 1443 1444 1445 1448 1449 1451 1452 1452 1454 1455 1456 1457 1459 1461 1463 1464 1465 1466 1467 1469 1470 1471 1472 1473 1474 1474 1475 1475 1474 1473
1433 1434 1434 1434 1434 1434 1434 1434 1434 1435 1435 1436 1436 1437 1438 1439 1442 1443 1445 1446 1446 1448 1449 1450 1451 1453 1455 1456 1457 1458 1458 1460 1462 1463 1464 1465 1466 1467 1468 1468 1468 1469 1468
1429 1430 1429 1429 1429 1429 1429 1429 1430 1430 1430 1431 1432 1432 1433 1434 1435 1437 1439 1440 1440 1441 1442 1443 1445 1447 1448 1450 1451 1452 1453 1455 1456 1456 1457 1458 1459 1460 1460 1461 1462 1463 1463
1425 1425 1425 1425 1425 1425 1425 1425 1425 1426 1426 1426 1427 1427 1428 1429 1430 1431 1433 1434 1436 1436 1437 1438 1440 1441 1443 1444 1445 1446 1448 1449 1449 1450 1451 1451 1452 1453 1454 1455 1456 1457 1457
1422 1422 1422 1422 1422 1422 1421 1421 1421 1422 1422 1422 1422 1422 1423 1424 1425 1426 1427 1429 1430 1431 1432 1433 1435 1436 1437 1438 1439 1441 1442 1443 1443 1444 1444 1445 1446 1447 1448 1449 1450 1450 1451
1419 1419 1419 1418 1418 1418 1418 1418 1418 1418 1418 1418 1418 1418 1419 1420 1420 1422 1422 1424 1425 1426 1427 1428 1429 1431 1432 1433 1434 1435 1436 1437 1438 1438 1439 1440 1441 1442 1443 1443 1444 1444 1445
1417 1417 1416 1416 1415 1414 1414 1414 1414 1414 1414 1414 1415 1415 1415 1415 1416 1418 1419 1420 1420 1421 1422 1423 1424 1425 1426 1427 1428 1430 1431 1432 1432 1433 1434 1435 1436 1436 1437 1438 1439 1439 1439
1415 1414 1414 1413 1412 1412 1411 1411 1411 1411 1411 1411 1411 1412 1411 1412 1413 1414 1415 1415 1416 1418 1418 1418 1419 1419 1420 1422 1423 1425 1426 1427 1427 1428 1429 1430 1431 1431 1432 1433 1434 1434 1434
1413 1412 1411 1411 1410 1409 1408 1407 1407 1407 1407 1407 1407 1408 1408 1408 1409 1410 1410 1411 1412 1413 1414 1413 1414 1415 1416 1418 1419 1420 1421 1423 1423 1424 1425 1426 1427 1427 1428 1428 1429 1429 1430
1411 1410 1409 1408 1407 1407 1406 1405 1404 1404 1403 1403 1404 1404 1405 1405 1406 1406 1407 1408 1408 1409 1409 1410 1410 1411 1412 1413 1415 1416 1417 1418 1419 1420 1421 1422 1423 1423 1423 1424 1424 1425 1425
1409 1408 1407 1406 1405 1404 1404 1403 1402 1402 1401 1401 1401 1401 1402 1402 1402 1403 1403 1404 1404 1405 1405 1406 1407 1407 1408 1409 1411 1412 1413 1414 1415 1416 1417 1418 1418 1419 1419 1420 1420 1421 1421
1407 1406 1405 1404 1403 1402 1401 1401 1400 1400 1399 1399 1399 1399 1399 1399 1399 1399 1400 1400 1401 1401 1402 1403 1403 1404 1405 1406 1407 1408 1409 1410 1411 1412 1413 1413 1414 1415 1415 1416 1416 1417 1417
1404 1403 1403 1402 1401 1400 1399 1399 1398 1398 1397 1397 1397 1397 1398 1397 1396 1396 1397 1397 1398 1398 1399 1399 1400 1400 1401 1402 1403 1404 1405 1406 1407 1408 1408 1409 1410 1411 1412 1412 1413 1413 1413
1403 1402 1401 1400 1399 1398 1397 1397 1396 1396 1396 1395 1395 1395 1395 1394 1393 1394 1394 1395 1395 1395 1396 1396 1396 1397 1398 1399 1399 1400 1401 1401 1403 1404 1405 1406 1406 1407 1408 1408 1409 1409 1410
1401 1400 1399 1398 1397 1396 1396 1395 1395 1394 1394 1393 1393 1392 1392 1392 1392 1392 1392 1392 1392 1392 1393 1393 1393 1393 1394 1395 1396 1396 1397 1398 1399 1400 1401 1402 1402 1403 1404 1404 1405 1405 1406
1399 1398 1397 1396 1395 1395 1394 1393 1393 1392 1392 1391 1391 1390 1390 1390 1390 1390 1390 1390 1389 1389 1390 1390 1390 1390 1391 1391 1392 1393 1394 1395 1396 1396 1397 1398 1398 1399 1400 1401 1401 1402 1402
1398 1397 1396 1395 1394 1393 1392 1392 1391 1391 1390 1390 1389 1389 1388 1388 1388 1388 1387 1387 1387 1387 1387 1387 1387 1388 1388 1388 1389 1389 1390 1391 1392 1393 1393 1394 1395 1395 1396 1397 1397 1398 1399
1396 1395 1394 1393 1392 1391 1391 1390 1389 1389 1389 1388 1388 1387 1387 1387 1386 1386 1386 1385 1385 1384 1384 1385 1385 1385 1385 1386 1386 1386 1387 1388 1388 1389 1390 1390 1391 1392 1392 1393 1394 1394 1395